"Pseudo-MPEC" for C1G0NL5

Created 2026 Sep 5 10:35:05 UT using Find_Orb

Click here for an explanation of pseudo-MPECs

 
 Astrometry: 
     C1G0NL5*1C2026 09 05.23604122 10 49.058-06 33 20.16   ~9575 21.62GVNEOCPV00
     C1G0NL5 1C2026 09 05.24162622 10 49.120-06 32 30.19   ~9575 21.94GVNEOCPV00
     C1G0NL5 1C2026 09 05.24720222 10 49.181-06 31 39.00   ~9575       VNEOCPV00
     C1G0NL5 1C2026 09 05.25277622 10 49.264-06 30 48.96   ~9575 21.78GVNEOCPV00
     C1G0NL5 1C2026 09 05.33727222 10 50.300-06 17 53.02   ~958Z 22.10GVNEOCPV00
     C1G0NL5 1C2026 09 05.33789222 10 50.308-06 17 47.36   ~958Z 22.28GVNEOCPV00
     C1G0NL5 1C2026 09 05.33851322 10 50.322-06 17 41.32   ~958Z 21.99GVNEOCPV00
     C1G0NL5 1C2026 09 05.33913322 10 50.347-06 17 35.70   ~958Z 22.13GVNEOCPV00

Station data:
(V00) Kitt Peak-Bok  (N31.963125 W111.600190)  US/Arizona. Measurers T.
   Beuden, V. F. Carvajal, D. Fay, J. B. Fazekas, D. C. Fuls, A. R. Gibbs, A.
   D. Grauer, H. Gröller, J. K. Hogan, R. A. Kowalski, S. M. Larson, G. J.
   Leonard, D. Rankin, R. L. Seaman, F. C. Shelly, K. W. Wierzchoś. 2.25-m
   reflector + 4x4K mosaic CCD.

Orbital elements:  C1G0NL5
   Perihelion 2026 Oct 10.048743 +/- 30.5 TT =  1:10:11.4 (JD 2461323.548743)
Epoch 2026 Sep  5.0 TT = JDT 2461288.5   Earth MOID: 0.0522   Ma: 0.0823
M 348.537756281 +/- 17              (J2000 ecliptic)             AutoNEOCP
n   0.327037224 +/- 0.244           Peri.   42.148257 +/- 35
a   2.086433707 +/- 1.04            Node   339.424876 +/- 0.44
e   0.52057267 +/- 0.24             Incl.    8.541808 +/- 4.6
P   3.01375                H 26.91  G  0.15   U 11.8  SR
q 1.000293339 +/- 0.0819    Q 3.172574075 +/- 28.7
From 8 observations 2026 Sept. 5 (2.5 hr); mean residual 0".25
Residuals in arcseconds: 
260905 V00  .11+  .60+    260905 V00  .07+  .60-    260905 V00  .03-  .19+    
260905 V00  .03-  .25-    260905 V00  .08-  .05-    260905 V00  .21+  .08+    
260905 V00  .15-  .16+    260905 V00  .10-  .12-    

Ephemerides (geocentric):
Date (UTC) HH   RA             Dec           delta  r     elong  mag " sig PA
---- --------  ------------   ------------  ------ ------ -----  --- --------
2026 09 05 11  22 10 58.864   -05 58 03.67  .07929 1.0862 168.9 22.2  136 123
2026 09 05 12  22 11 01.049   -05 51 34.03  .07911 1.0860 168.8 22.2  160 118
2026 09 05 13  22 11 03.246   -05 45 02.66  .07894 1.0858 168.8 22.2  184 115
2026 09 05 14  22 11 05.455   -05 38 29.55  .07876 1.0856 168.8 22.2  209 112
2026 09 05 15  22 11 07.676   -05 31 54.68  .07859 1.0854 168.7 22.2  234 110
2026 09 05 16  22 11 09.909   -05 25 18.05  .07841 1.0852 168.7 22.2  261 109
2026 09 05 17  22 11 12.155   -05 18 39.65  .07823 1.0850 168.6 22.2  287 109
2026 09 05 18  22 11 14.412   -05 11 59.48  .07806 1.0848 168.6 22.2  314 108
2026 09 05 19  22 11 16.682   -05 05 17.53  .07789 1.0846 168.6 22.2  341 108
2026 09 05 20  22 11 18.965   -04 58 33.78  .07771 1.0844 168.5 22.2  369 109
2026 09 05 21  22 11 21.259   -04 51 48.24  .07754 1.0842 168.5 22.2  397 110
2026 09 05 22  22 11 23.567   -04 45 00.89  .07736 1.0840 168.4 22.2  426 111
2026 09 05 23  22 11 25.887   -04 38 11.72  .07719 1.0839 168.4 22.2  456 113
2026 09 06 00  22 11 28.220   -04 31 20.74  .07702 1.0837 168.3 22.2  487 115
2026 09 06 01  22 11 30.566   -04 24 27.92  .07685 1.0835 168.3 22.2  520 118
2026 09 06 02  22 11 32.924   -04 17 33.26  .07668 1.0833 168.2 22.2  555 121
2026 09 06 03  22 11 35.296   -04 10 36.76  .07650 1.0831 168.2 22.2  593 125
2026 09 06 04  22 11 37.680   -04 03 38.41  .07633 1.0829 168.1 22.2  634 130
2026 09 06 05  22 11 40.078   -03 56 38.19  .07616 1.0827 168.1 22.2  679 135
2026 09 06 06  22 11 42.489   -03 49 36.11  .07599 1.0825 168.0 22.2  729 139
2026 09 06 07  22 11 44.913   -03 42 32.14  .07582 1.0823 168.0 22.2  784 143
2026 09 06 08  22 11 47.351   -03 35 26.29  .07565 1.0821 167.9 22.2  843 147
2026 09 06 09  22 11 49.802   -03 28 18.55  .07548 1.0819 167.9 22.2  908 150
2026 09 06 10  22 11 52.266   -03 21 08.91  .07531 1.0818 167.8 22.2  977 153
2026 09 06 11  22 11 54.744   -03 13 57.36  .07515 1.0816 167.8 22.2 1050 155
2026 09 06 12  22 11 57.236   -03 06 43.90  .07498 1.0814 167.7 22.2 1128 157
2026 09 06 13  22 11 59.742   -02 59 28.51  .07481 1.0812 167.7 22.2 1210 159
2026 09 06 14  22 12 02.262   -02 52 11.18  .07464 1.0810 167.6 22.1 1296 160
2026 09 06 15  22 12 04.796   -02 44 51.92  .07448 1.0808 167.6 22.1 1387 161
2026 09 06 16  22 12 07.343   -02 37 30.71  .07431 1.0806 167.5 22.1 1483 162
2026 09 06 17  22 12 09.905   -02 30 07.55  .07415 1.0804 167.4 22.1 1582 163
2026 09 06 18  22 12 12.482   -02 22 42.42  .07398 1.0802 167.4 22.1 1687 163
2026 09 06 19  22 12 15.072   -02 15 15.32  .07381 1.0801 167.3 22.1 1796 164
2026 09 06 20  22 12 17.677   -02 07 46.24  .07365 1.0799 167.2 22.1 1910 164
2026 09 06 21  22 12 20.297   -02 00 15.17  .07349 1.0797 167.2 22.1 2029 165
2026 09 06 22  22 12 22.931   -01 52 42.12  .07332 1.0795 167.1 22.1 2153 165
2026 09 06 23  22 12 25.580   -01 45 07.05  .07316 1.0793 167.1 22.1 2282 165
2026 09 07 00  22 12 28.243   -01 37 29.98  .07300 1.0791 167.0 22.1 2416 166
2026 09 07 01  22 12 30.922   -01 29 50.89  .07283 1.0789 166.9 22.1 2556 166
2026 09 07 02  22 12 33.616   -01 22 09.78  .07267 1.0788 166.9 22.1 2702 166
2026 09 07 03  22 12 36.324   -01 14 26.64  .07251 1.0786 166.8 22.1 2854 167
2026 09 07 04  22 12 39.048   -01 06 41.45  .07235 1.0784 166.7 22.1 3012 167
2026 09 07 05  22 12 41.788   -00 58 54.21  .07219 1.0782 166.7 22.1 3176 167
2026 09 07 06  22 12 44.542   -00 51 04.92  .07203 1.0780 166.6 22.1 3347 167
2026 09 07 07  22 12 47.313   -00 43 13.57  .07187 1.0778 166.5 22.1 3524 167
2026 09 07 08  22 12 50.098   -00 35 20.15  .07171 1.0776 166.4 22.1 3709 167
2026 09 07 09  22 12 52.900   -00 27 24.65  .07155 1.0775 166.4 22.1 3901 167
2026 09 07 10  22 12 55.717   -00 19 27.06  .07139 1.0773 166.3 22.1 4101 168